Morgantown, WV

4:54 AM EDT on September 22, 2019 (GMT -0400)
Morgantown Municipal-Hart

Weather History for KMGW - August, 2019

Change the Weather History Date:

Saturday, August 17, 2019

  Actual Average Record
Temperature  
Mean Temperature 76 °F 72 °F  
Max Temperature 89 °F 83 °F 99 °F (1988)
Min Temperature 62 °F 62 °F 45 °F (1902)
Degree Days  
Heating Degree Days 0 0  
Month to date heating degree days 0 0  
Since 1 June heating degree days 23 34  
Since 1 July heating degree days 0 3  
Cooling Degree Days 11 7  
Month to date cooling degree days 155 133  
Year to date cooling degree days 825 617  
Since 1 June cooling degree days 668 550  
Growing Degree Days 25 (Base 50)    
Moisture  
Dew Point 63 °F    
Average Humidity 70    
Maximum Humidity 100    
Minimum Humidity 40    
Precipitation  
Precipitation 0.00 in 0.11 in 2.60 in (1977)
Month to date precipitation 1.36 2.00  
Year to date precipitation 31.12 27.92  
Sea Level Pressure  
Sea Level Pressure 30.01 in    
Wind  
Wind Speed 4 mph (SSW)    
Max Wind Speed 12 mph    
Max Gust Speed 17 mph    
Visibility 10 miles    
Events      
T = Trace of Precipitation, MM = Missing Value Source: NWS Daily Summary

Daily Weather History Graph

Daily Weather History Graph

Search for Another Location

Airport or City:

Astronomy

Aug. 17, 2019 Rise Set
Actual Time 6:33 AM EDT 8:13 PM EDT
Civil Twilight 6:04 AM EDT 8:41 PM EDT
Nautical Twilight 5:30 AM EDT 9:16 PM EDT
Astronomical Twilight 4:53 AM EDT 9:53 PM EDT
Moon 9:40 PM EDT (8/17) 8:20 AM EDT (8/17)
Length of Visible Light 14h 36m
Length of Day
13h 39m
Waning Gibbous, 96% of the Moon is Illuminated
Aug 17
Waning Gibbous
Aug 23
Last Quarter
Aug 30
New
Sep 5
First Quarter
Sep 14
Full

Hourly Weather History & Observations

Time (EDT) Temp. Heat Index Dew Point Humidity Pressure Visibility Wind Dir Wind Speed Gust Speed Precip Events Conditions
12:53 AM 66.9 °F - 64.0 °F 90% 30.01 in 10.0 mi Calm Calm - N/A   Clear
1:53 AM 64.0 °F - 63.0 °F 96% 30.01 in 8.0 mi Calm Calm - N/A   Clear
2:53 AM 64.0 °F - 63.0 °F 96% 30.00 in 10.0 mi Calm Calm - N/A   Clear
3:53 AM 64.0 °F - 62.1 °F 93% 30.01 in 9.0 mi Calm Calm - N/A   Clear
4:53 AM 63.0 °F - 62.1 °F 97% 30.01 in 9.0 mi Calm Calm - N/A   Clear
5:53 AM 62.1 °F - 62.1 °F 100% 30.01 in 5.0 mi Calm Calm - N/A   Clear
6:53 AM 63.0 °F - 62.1 °F 97% 30.01 in 10.0 mi Calm Calm - N/A   Clear
7:53 AM 64.9 °F - 63.0 °F 93% 30.00 in 10.0 mi Calm Calm - N/A   Clear
8:53 AM 71.1 °F - 64.0 °F 78% 30.01 in 10.0 mi South 3.5 mph - N/A   Clear
9:53 AM 77.0 °F - 64.9 °F 66% 30.03 in 10.0 mi Variable 3.5 mph - N/A   Clear
10:53 AM 80.1 °F 81.5 °F 63.0 °F 56% 30.04 in 10.0 mi South 5.8 mph - N/A   Clear
11:53 AM 82.0 °F 83.0 °F 62.1 °F 51% 30.04 in 10.0 mi SSW 9.2 mph - N/A   Partly Cloudy
12:53 PM 84.0 °F 84.5 °F 62.1 °F 47% 30.04 in 10.0 mi Variable 5.8 mph - N/A   Partly Cloudy
1:53 PM 84.9 °F 85.0 °F 61.0 °F 44% 30.03 in 10.0 mi SSW 9.2 mph - N/A   Scattered Clouds
2:53 PM 86.0 °F 86.3 °F 62.1 °F 44% 30.01 in 10.0 mi SW 9.2 mph - N/A   Scattered Clouds
3:53 PM 88.0 °F 87.9 °F 61.0 °F 40% 29.98 in 10.0 mi SSW 9.2 mph - N/A   Partly Cloudy
4:53 PM 87.1 °F 87.0 °F 61.0 °F 41% 29.98 in 10.0 mi Variable 5.8 mph - N/A   Scattered Clouds
5:53 PM 87.1 °F 87.5 °F 62.1 °F 43% 29.99 in 10.0 mi SW 11.5 mph - N/A   Scattered Clouds
6:53 PM 84.9 °F 85.9 °F 63.0 °F 48% 29.99 in 10.0 mi WSW 5.8 mph - N/A   Clear
7:53 PM 82.9 °F 84.6 °F 64.9 °F 54% 29.99 in 10.0 mi Variable 4.6 mph - N/A   Clear
8:53 PM 79.0 °F - 66.0 °F 64% 29.99 in 10.0 mi SSE 4.6 mph - N/A   Clear
9:53 PM 78.1 °F - 66.0 °F 66% 29.99 in 10.0 mi South 3.5 mph - N/A   Clear
10:53 PM 77.0 °F - 66.9 °F 71% 29.98 in 10.0 mi NNW 3.5 mph - N/A   Clear
11:53 PM 73.0 °F - 68.0 °F 84% 29.99 in 10.0 mi Calm Calm - N/A   Clear